Regional Weather Roundup
Issued by NWS Albany, NY

Home | Current Version | Previous Version | Text Only | Print | Product List | Glossary On
Versions: 1 2 3 4 5 6 7 8 9 10 11 12 13 14 15 16 17 18 19 20 21 22 23 24 25 26 27 28 29 30 31 32 33 34 35 36 37 38 39 40 41 42 43 44 45 46 47 48 49 50
000
ASUS41 KALY 271910
RWRALY

NEW YORK STATE HOURLY WEATHER ROUNDUP
NATIONAL WEATHER SERVICE ALBANY NY
300 PM EDT WED JUL 27 2016

NOTE: "FAIR" INDICATES FEW OR NO CLOUDS BELOW 12,000 FEET WITH NO
SIGNIFICANT WEATHER AND/OR NO OBSTRUCTIONS TO VISIBILITY.

NYZ032-033-038>043-046>054-057>066-NYZ062>081-082-084-272000-
EAST


CITY           SKY/WX    TMP DP  RH WIND       PRES   REMARKS
ALBANY         MOSUNNY   89  56  32 W7G17     29.92F
GLENS FALLS    SUNNY     87  63  44 S13       29.89F
POUGHKEEPSIE   MOSUNNY   91  61  36 W9        29.91F HX  91
NEWBURGH       MOSUNNY   88  64  45 NW6       29.95F
MONTGOMERY     SUNNY     89  60  37 N8        29.93F
WHITE PLAINS   MOSUNNY   88  60  38 NW7       29.93F
ISLIP          MOSUNNY   87  64  46 S8        29.92F
NEW YORK CITY  MOSUNNY   93  59  31 W10       29.91S HX  92
CENTRAL PARK   PTSUNNY   88  60  38 W3        29.95S
$$

NYZ005>009-017-018-044>046-055-056-272000-
CENTRAL


CITY           SKY/WX    TMP DP  RH WIND       PRES   REMARKS
FULTON         SUNNY     90  58  33 W10G18    29.94F
SYRACUSE       MOSUNNY   85  60  42 W9        29.93F
ROME           SUNNY     84  59  42 SW13      29.95F
ELMIRA         PTSUNNY   87  55  33 W7        29.95F
BINGHAMTON     MOSUNNY   83  57  41 CALM      30.00F
MONTICELLO     MOSUNNY   82  61  47 NW10      30.01F
$$

NYZ026>034-041>043-087-272000-
NORTH


CITY           SKY/WX    TMP DP  RH WIND       PRES   REMARKS
WATERTOWN      SUNNY     85  57  38 W13       29.92F
FORT DRUM      NOT AVBL
MASSENA        SUNNY     86  62  44 W9        29.87F
SARANAC LAKE   SUNNY     82  53  36 SW12G18   29.94F
PLATTSBURGH    SUNNY     85  63  47 SE14      29.86F
$$

NYZ001>004-010>016-019>021-085-272000-
WEST


CITY           SKY/WX    TMP DP  RH WIND       PRES   REMARKS
NIAGARA FALLS  PTSUNNY   88  67  49 SW20      29.93F HX  91
BUFFALO        MOSUNNY   83  65  54 SW17G24   29.96S
DUNKIRK        SUNNY     83  60  45 W13       29.99S
JAMESTOWN      MOSUNNY   81  59  47 CALM      30.03S
WELLSVILLE     PTSUNNY   82  57  42 N8        30.05F
ROCHESTER      MOSUNNY   89  62  40 VRB6      29.93F
PENN YAN       MOSUNNY   86  60  41 W7        29.97F
$$

             KEY
       WCI = WIND CHILL INDEX
       VSB = VISIBILITY
       HX  = HEAT INDEX
$$



USA.gov is the U.S. government's official web portal to all federal, state and local government web resources and services.